Tracking 18851 objects as of 24-Nov-2017
HD Live streaming from Space Station
objects crossing your sky now

FENGYUN 1C DEB

Track FENGYUN 1C DEB now!
10-day predictions


NORAD ID: 31754
Int'l Code: 1999-025CFD
Perigee: 759.1 km
Apogee: 848.1 km
Inclination: 99.1 °
Period: 100.8 minutes
Semi major axis: 7174 km
RCS: 0.0091 m2 (small)
Launch date: May 10, 1999
Source: People's Republic of China (PRC)
Launch site: Taiyaun Space Center, China (TSC)

Note: This is SATELLITE DEBRIS
aabbcc
Your satellite tracking list
Your tracking list is empty




NASA's NSSDC Master Catalog

Two Line Element Set (TLE):
1 31754U 99025CFD 17327.67733923 +.00000541 +00000-0 +22976-3 0  9994
2 31754 099.0889 128.5860 0062052 130.1093 230.5548 14.28594294549022
Source of the keplerian elements: AFSPC